Location: Cz?stochówka
(50.8142°N, 19.0915°E)
Time: 23:27:26
(UTC+00:00)

COSMOS 2406 - Visible Passes

Search period start: 18 April 2026 00:00
Search period end: 28 April 2026 00:00
Orbit: 844 x 860 km, 71.0° (Epoch: 18 April)

Date Brightness Start Highest point End Pass type
(mag) Time Alt. Az. Time Alt. Az. Time Alt. Az.
18 Apr 3.4 01:19:08 32° S 01:21:52 71° ESE 01:27:38 10° NNE visible
18 Apr 4.4 03:01:45 10° WSW 03:06:42 29° NW 03:11:40 10° NNE visible
18 Apr 5.4 23:25:30 12° ESE 23:26:42 13° E 23:29:12 10° ENE visible
19 Apr 3.3 01:07:32 36° S 01:09:56 71° ESE 01:15:41 10° NNE visible
19 Apr 4.5 02:49:48 10° WSW 02:54:45 29° NW 02:59:44 10° NNE visible
19 Apr 5.4 23:13:51 13° ESE 23:14:45 13° E 23:17:16 10° ENE visible
20 Apr 3.3 00:55:53 40° S 00:57:59 71° ESE 01:03:45 10° NNE visible
20 Apr 4.5 02:37:54 10° WSW 02:42:49 29° NW 02:47:47 10° NNE visible
20 Apr 5.4 23:02:11 13° ESE 23:02:48 13° E 23:05:21 10° ENE visible
21 Apr 3.3 00:44:12 44° S 00:46:03 72° ESE 00:51:48 10° NNE visible
21 Apr 4.5 02:26:13 11° W 02:30:53 29° NW 02:35:50 10° NNE visible
21 Apr 5.3 22:50:28 13° E 22:50:52 13° E 22:53:26 10° ENE visible
22 Apr 3.3 00:32:29 47° S 00:34:07 72° ESE 00:39:52 10° NNE visible
22 Apr 4.5 02:14:30 12° W 02:18:57 29° NW 02:23:54 10° NNE visible
22 Apr 5.3 22:38:43 13° E 22:38:55 13° E 22:41:30 10° ENE visible
23 Apr 3.3 00:20:44 51° S 00:22:10 72° ESE 00:27:55 10° NNE visible
23 Apr 4.6 02:02:45 13° W 02:07:00 28° NW 02:11:57 10° NNE visible
23 Apr 5.3 22:26:57 13° E 22:26:58 13° E 22:29:35 10° ENE visible
24 Apr 3.2 00:08:58 54° S 00:10:13 73° ESE 00:15:58 10° NNE visible
24 Apr 4.6 01:50:59 14° W 01:55:03 28° NW 02:00:00 10° NNE visible
24 Apr 5.3 22:15:09 13° E 22:15:09 13° E 22:17:40 10° ENE visible
24 Apr 3.2 23:57:09 57° S 23:58:17 73° ESE 00:04:02 10° NNE visible
25 Apr 4.6 01:39:10 14° W 01:43:07 28° NW 01:48:04 10° NNE visible
25 Apr 5.3 22:03:19 13° E 22:03:19 13° E 22:05:44 10° ENE visible
25 Apr 3.2 23:45:19 59° S 23:46:20 73° ESE 23:52:05 10° NNE visible
26 Apr 4.6 01:27:20 15° W 01:31:11 28° NW 01:36:07 10° NNE visible
26 Apr 5.3 21:51:27 13° E 21:51:27 13° E 21:53:49 10° ENE visible
26 Apr 3.2 23:33:27 60° S 23:34:24 73° ESE 23:40:09 10° NNE visible
27 Apr 4.7 01:15:28 15° W 01:19:14 28° NW 01:24:11 10° NNE visible
27 Apr 5.2 21:39:33 13° E 21:39:33 13° E 21:41:53 10° ENE visible
27 Apr 3.1 23:21:33 61° S 23:22:27 74° ESE 23:28:12 10° NNE visible
